Total_Precipitation_Accumulation
0.01 0.02 0.03 0.06 0.22 0.47 0.73 0.64 0.70 0.70 0.70 0.62 0.63 0.72 0.81 0.93 1.20 2.07 1.37 0.70 0.48 0.52 0.49 0.55 0.58 0.60 0.67 0.72 0.82 0.97 1.05 1.00 1.09 1.25 1.51 1.63 1.75 1.92 2.02 2.05 2.18 2.19 2.15 2.00 1.83 1.86 2.00 2.15 2.05
0.02 0.03 0.05 0.10 0.34 0.70 0.74 0.64 0.69 0.70 0.60 0.50 0.57 0.70 0.69 0.67 0.63 0.67 0.80 0.64 0.48 0.44 0.50 0.50 0.54 0.63 0.64 0.70 0.75 0.92 1.02 1.00 1.03 1.16 1.43 1.64 1.76 1.88 1.96 2.11 2.26 2.49 2.56 2.53 2.22 2.01 2.11 2.16 2.03
0.02 0.04 0.08 0.14 0.38 0.64 0.73 0.61 0.62 0.59 0.51 0.53 0.60 0.68 0.76 0.81 0.73 0.67 0.66 0.45 0.51 0.47 0.54 0.63 0.62 0.67 0.65 0.69 0.77 0.91 1.07 1.12 1.11 1.20 1.37 1.70 1.84 1.93 2.09 2.29 2.28 2.45 2.57 2.66 2.51 2.35 2.25 2.13 1.98
0.03 0.06 0.10 0.18 0.33 0.44 0.54 0.54 0.64 0.72 0.62 0.60 0.59 0.77 0.87 0.77 0.74 0.69 0.62 0.53 0.50 0.54 0.60 0.60 0.65 0.68 0.67 0.74 0.84 0.96 1.20 1.25 1.23 1.28 1.42 1.68 1.83 1.93 2.17 2.49 2.37 2.32 2.33 2.50 2.57 2.49 2.37 2.23 1.93
0.05 0.08 0.14 0.25 0.33 0.35 0.48 0.56 0.73 0.83 0.68 0.64 0.69 0.95 1.09 0.99 0.89 0.85 0.77 0.70 0.58 0.58 0.67 0.64 0.71 0.75 0.77 0.81 0.89 1.06 1.21 1.27 1.30 1.39 1.51 1.71 1.78 1.86 2.15 2.51 2.60 2.58 2.46 2.50 2.48 2.42 2.35 2.39 2.14
0.06 0.10 0.22 0.35 0.36 0.36 0.44 0.56 0.61 0.71 0.69 0.67 0.76 1.17 1.58 1.57 1.46 1.33 1.17 0.90 0.73 0.67 0.77 0.81 0.86 0.88 0.93 0.95 0.93 1.07 1.19 1.23 1.38 1.54 1.61 1.75 1.88 1.96 2.17 2.49 2.73 2.77 2.67 2.51 2.39 2.22 2.10 2.24 2.19
0.10 0.17 0.26 0.33 0.40 0.44 0.44 0.58 0.67 0.74 0.78 0.82 0.96 1.23 1.61 1.76 1.82 1.70 1.52 1.24 1.18 1.11 1.16 1.15 1.06 0.99 1.04 1.07 1.03 1.08 1.15 1.17 1.31 1.51 1.55 1.62 1.87 2.10 2.17 2.28 2.52 2.65 2.56 2.45 2.33 2.20 1.97 2.05 2.18
0.08 0.12 0.20 0.27 0.40 0.52 0.51 0.67 0.68 0.68 0.82 0.92 1.11 1.39 1.84 1.74 1.57 1.73 1.79 1.73 1.69 1.78 1.77 1.39 1.22 1.16 1.19 1.19 1.19 1.25 1.23 1.20 1.27 1.41 1.57 1.70 1.88 2.09 2.29 2.32 2.45 2.54 2.42 2.40 2.34 2.30 2.13 2.16 2.30
0.09 0.13 0.19 0.30 0.40 0.47 0.44 0.62 0.61 0.54 0.64 0.81 1.07 1.22 1.43 1.38 1.40 1.74 1.96 2.28 2.40 2.23 2.07 1.77 1.50 1.46 1.40 1.26 1.17 1.35 1.36 1.31 1.37 1.47 1.58 1.76 2.07 2.39 2.52 2.39 2.45 2.38 2.31 2.41 2.52 2.44 2.34 2.47 2.51
0.07 0.10 0.17 0.23 0.25 0.35 0.44 0.60 0.55 0.62 0.70 0.87 0.99 1.21 1.40 1.39 1.69 1.89 2.08 2.59 2.52 2.42 2.20 2.11 1.98 1.78 1.73 1.42 1.57 1.82 1.65 1.64 1.57 1.74 1.80 2.08 2.51 2.76 2.58 2.83 2.88 2.79 2.73 2.79 2.86 2.78 2.59 2.51 2.36
0.06 0.08 0.14 0.21 0.20 0.28 0.44 0.55 0.54 0.69 0.93 1.23 1.30 1.30 1.36 1.45 1.78 2.05 2.25 2.63 2.76 2.55 2.22 2.25 2.25 2.24 2.26 2.24 2.06 2.08 2.10 2.18 2.10 2.27 2.28 2.56 2.78 2.82 2.99 3.30 3.28 3.20 3.06 2.93 3.02 2.91 2.43 2.38 2.53
0.10 0.12 0.16 0.18 0.21 0.33 0.49 0.60 0.81 0.91 1.09 1.35 1.42 1.41 1.58 1.70 1.86 2.01 2.27 2.66 2.92 2.84 2.67 2.79 2.61 2.58 2.69 2.88 2.77 2.36 2.27 2.32 2.26 2.54 2.55 2.80 3.08 3.23 3.53 3.69 3.50 3.50 3.49 3.48 3.44 3.34 2.94 2.77 2.68
0.12 0.15 0.18 0.17 0.25 0.38 0.54 0.62 0.77 0.83 0.76 1.03 1.31 1.52 1.74 1.74 1.91 2.07 2.43 3.01 3.30 3.26 3.13 3.27 3.23 3.20 3.23 3.47 3.46 2.82 2.73 2.89 3.15 3.24 3.06 3.12 3.24 3.45 3.84 3.88 3.83 3.73 3.83 3.78 3.64 3.44 3.43 3.40 3.16
0.12 0.15 0.17 0.19 0.23 0.32 0.47 0.51 0.65 0.90 0.86 1.01 1.23 1.59 1.81 1.99 2.27 2.64 2.96 3.40 3.69 3.73 3.58 3.53 3.53 3.68 3.59 3.61 3.64 3.60 3.34 3.42 3.59 3.65 3.62 3.61 3.72 3.94 4.22 4.28 4.26 4.05 4.11 4.04 3.93 3.72 3.77 3.78 3.73
0.14 0.15 0.20 0.26 0.30 0.32 0.38 0.61 0.80 0.98 1.08 1.24 1.42 1.60 1.93 2.18 2.42 2.78 3.29 3.63 3.66 3.62 3.55 3.63 3.63 3.87 4.02 4.04 3.86 3.93 3.94 4.02 4.18 4.19 4.02 3.92 4.06 4.49 4.63 4.71 4.50 4.35 4.37 4.55 4.56 4.46 4.38 4.06 3.95
0.17 0.22 0.27 0.31 0.33 0.38 0.40 0.80 0.98 0.84 0.98 1.35 1.58 1.62 1.84 2.05 2.37 2.73 3.19 3.58 3.71 3.96 3.98 3.97 3.97 4.11 4.42 4.48 4.36 4.33 4.28 4.59 4.69 4.65 4.54 4.28 4.24 4.52 4.75 4.76 4.63 4.57 4.56 4.87 5.06 5.03 4.97 4.75 4.58
0.24 0.31 0.34 0.37 0.34 0.41 0.48 0.80 0.99 0.97 1.00 1.26 1.70 1.92 1.91 2.15 2.53 2.89 3.24 3.60 3.85 3.99 4.18 4.18 4.32 4.54 4.59 4.71 4.66 4.78 4.93 4.89 4.82 4.77 4.78 4.68 4.65 4.88 5.04 4.91 4.94 5.01 5.10 5.11 4.86 5.09 4.96 4.96 4.87
0.28 0.32 0.37 0.41 0.41 0.41 0.53 0.76 1.00 1.13 1.29 1.39 1.67 1.99 2.14 2.18 2.45 2.77 3.18 3.63 3.91 4.06 4.09 4.24 4.31 4.51 4.71 4.93 4.97 5.05 5.19 5.29 5.44 5.55 5.54 5.29 5.29 5.28 5.59 5.54 5.47 5.49 5.49 5.33 5.24 5.30 5.00 4.90 4.88
0.26 0.35 0.41 0.44 0.41 0.50 0.60 0.72 0.99 1.20 1.44 1.49 1.58 1.85 2.11 2.35 2.50 2.83 3.21 3.52 4.05 4.20 4.16 4.26 4.41 4.62 4.78 5.10 5.22 5.52 5.88 6.10 6.25 6.17 5.96 6.05 6.05 6.10 6.20 5.99 5.89 5.75 5.74 5.68 5.65 5.56 5.30 5.02 5.05
0.27 0.43 0.47 0.45 0.42 0.52 0.71 0.87 1.08 1.30 1.45 1.44 1.59 1.77 2.01 2.43 2.76 2.97 3.16 3.57 4.11 4.36 4.44 4.52 4.74 5.07 5.27 5.57 6.06 6.39 6.72 6.94 7.10 7.12 6.70 6.40 6.27 6.18 6.11 6.27 6.23 6.12 6.03 5.88 5.71 5.64 5.44 5.04 5.03
0.21 0.31 0.41 0.47 0.51 0.60 0.83 1.22 1.43 1.59 1.67 1.79 2.03 2.20 2.31 2.55 2.92 3.02 3.07 3.50 3.87 4.13 4.30 4.53 4.81 5.29 5.86 6.27 6.71 7.09 7.32 7.35 7.16 6.88 6.85 6.62 6.41 6.26 6.08 5.99 5.86 5.84 5.74 5.75 5.62 5.43 5.25 5.04 4.95
0.21 0.23 0.34 0.41 0.59 0.75 0.89 1.62 2.00 2.00 2.01 2.22 2.42 2.45 2.54 2.65 2.85 2.99 3.12 3.44 3.77 4.06 4.26 4.63 5.19 5.94 6.50 6.92 7.46 8.05 8.21 7.97 7.61 7.18 6.70 6.37 6.10 5.78 5.54 5.46 5.43 5.39 5.07 4.99 4.84 4.83 4.72 4.63 4.45
0.19 0.21 0.29 0.36 0.49 0.72 0.95 1.50 2.40 2.45 2.44 2.58 2.73 2.52 2.55 2.47 2.53 2.78 2.94 3.18 3.69 4.01 4.25 4.61 5.24 6.04 6.78 7.58 8.22 8.70 8.59 8.27 7.84 7.11 6.46 5.97 5.56 5.19 4.88 4.78 4.72 4.53 4.17 3.89 3.85 4.07 4.12 4.13 4.06
0.16 0.21 0.30 0.38 0.52 0.86 0.93 1.35 2.20 2.55 2.72 2.81 2.71 2.47 2.39 2.27 2.29 2.41 2.60 2.98 3.53 3.84 4.03 4.37 5.01 5.81 6.51 7.11 7.62 7.89 7.80 7.64 7.10 6.40 5.74 5.32 4.99 4.64 4.24 3.89 3.73 3.50 3.36 3.21 3.24 3.38 3.47 3.74 3.86
0.20 0.30 0.65 0.90 1.04 1.08 0.86 1.19 1.97 2.28 2.41 2.34 2.36 2.40 2.22 2.27 2.22 2.23 2.37 2.66 3.09 3.26 3.62 4.00 4.45 5.14 5.60 5.94 6.30 6.54 6.69 6.50 6.14 5.62 5.12 4.70 4.24 3.88 3.55 3.20 3.16 3.03 2.97 2.91 2.96 3.07 3.07 3.19 3.39
0.23 0.28 0.73 1.11 1.17 1.20 1.16 1.63 2.24 2.19 2.10 2.03 2.00 2.04 2.07 2.23 2.24 2.23 2.39 2.60 2.87 3.05 3.21 3.37 3.65 4.05 4.24 4.30 4.54 4.85 4.95 4.90 4.75 4.47 4.06 3.78 3.44 3.08 2.87 2.63 2.47 2.48 2.58 2.51 2.66 2.76 2.79 2.82 2.91
0.23 0.24 0.36 0.71 0.84 1.30 1.63 2.11 2.61 2.30 2.16 2.12 2.03 1.90 1.86 1.93 2.06 2.24 2.37 2.40 2.41 2.45 2.53 2.63 2.84 2.98 3.05 3.14 3.23 3.40 3.47 3.46 3.42 3.29 3.02 2.80 2.67 2.39 2.26 2.17 2.14 2.12 2.21 2.34 2.42 2.39 2.40 2.54 2.62
0.21 0.29 0.45 0.82 1.31 1.60 1.88 2.60 3.29 3.00 2.49 2.17 1.94 1.73 1.66 1.73 1.86 2.06 2.22 2.21 2.21 2.14 2.20 2.29 2.44 2.51 2.52 2.60 2.60 2.56 2.61 2.61 2.61 2.49 2.36 2.31 2.24 2.11 2.06 1.97 1.92 1.89 1.90 1.95 2.09 2.14 2.18 2.25 2.35
0.31 0.38 0.56 0.86 1.06 1.58 2.15 2.95 3.04 3.19 2.94 2.43 2.10 1.96 1.85 1.76 1.85 2.02 2.05 2.02 2.03 2.01 2.05 2.14 2.17 2.22 2.22 2.21 2.27 2.27 2.17 2.15 2.22 2.21 2.08 2.05 2.02 1.89 1.84 1.77 1.69 1.63 1.63 1.70 1.83 1.87 1.95 2.03 2.11
0.30 0.37 0.57 1.13 1.28 1.34 2.05 3.12 2.85 3.08 3.18 2.87 2.60 2.46 2.34 2.14 2.00 2.00 1.93 1.87 1.83 1.90 1.97 2.07 2.06 2.01 2.05 1.96 1.91 1.92 1.96 1.91 1.94 1.92 1.82 1.81 1.88 1.82 1.76 1.65 1.56 1.45 1.44 1.51 1.54 1.57 1.68 1.82 1.86